EW0478 Weather Reports


time (UTC)temp
C
wind
direction
speed
KPH
gust
KPH
rain 1hr
cm
rain 24hr
cm
rain mn
cm
humidity
%
barometer
mb
20260505200023 28 178 6.4 20.9 0.00 0.00 0.00 35 1004.2
20260505200003 28 230 8.0 20.9 0.00 0.00 0.00 35 1004.1
20260505195617 28 225 9.7 29.0 0.00 0.00 0.00 34 1004.1
20260505194513 28 196 9.7 25.7 0.00 0.00 0.00 35 1004.3
20260505194503 28 221 8.0 24.1 0.00 0.00 0.00 35 1004.2
20260505193603 28 206 9.7 24.1 0.00 0.00 0.00 35 1004.3
20260505193006 28 185 8.0 17.7 0.00 0.00 0.00 37 1004.4
20260505192703 28 200 8.0 14.5 0.00 0.00 0.00 36 1004.3
20260505191803 29 197 8.0 17.7 0.00 0.00 0.00 39 1004.5
20260505191508 29 163 4.8 17.7 0.00 0.00 0.00 39 1004.6
20260505190903 29 193 8.0 14.5 0.00 0.00 0.00 38 1004.5
20260505190217 29 203 6.4 17.7 0.00 0.00 0.00 40 1004.7
20260505190008 29 179 6.4 16.1 0.00 0.00 0.00 39 1004.8
20260505185616 29 217 4.8 14.5 0.00 0.00 0.00 40 1004.8
20260505184516 28 206 6.4 22.5 0.00 0.00 0.00 38 1005.1
20260505184503 28 206 8.0 24.1 0.00 0.00 0.00 38 1005.0
20260505183603 28 217 8.0 19.3 0.00 0.00 0.00 41 1005.2
20260505183110 28 266 8.0 17.7 0.00 0.00 0.00 39 1005.4
20260505182703 28 200 6.4 19.3 0.00 0.00 0.00 40 1005.2
20260505182018 29 201 6.4 19.3 0.00 0.00 0.00 42 1005.3
20260505181506 28 170 4.8 17.7 0.00 0.00 0.00 40 1005.4
20260505180903 28 230 6.4 16.1 0.00 0.00 0.00 44 1005.4
20260505180007 28 123 4.8 14.5 0.00 0.00 0.00 40 1005.8
20260505180003 28 205 6.4 14.5 0.00 0.00 0.00 40 1005.6
20260505175403 29 199 6.4 14.5 0.00 0.00 0.00 41 1005.6
20260505174505 28 181 4.8 14.5 0.00 0.00 0.00 42 1005.8
20260505174503 28 213 4.8 16.1 0.00 0.00 0.00 42 1005.6
20260505173603 28 202 4.8 11.3 0.00 0.00 0.00 44 1005.8
20260505173016 28 198 3.2 11.3 0.00 0.00 0.00 44 1006.0
20260505172703 28 194 6.4 14.5 0.00 0.00 0.00 43 1005.8
20260505172018 28 191 6.4 14.5 0.00 0.00 0.00 46 1006.0
20260505171506 28 198 4.8 12.9 0.00 0.00 0.00 45 1006.1
20260505170903 28 211 4.8 12.9 0.00 0.00 0.00 43 1006.0
20260505170017 28 210 4.8 12.9 0.00 0.00 0.00 44 1006.2
20260505170003 28 191 4.8 12.9 0.00 0.00 0.00 44 1006.1
20260505165403 28 179 4.8 11.3 0.00 0.00 0.00 45 1006.0
20260505164530 28 165 4.8 9.7 0.00 0.00 0.00 47 1006.2
20260505164503 28 182 4.8 9.7 0.00 0.00 0.00 46 1006.1
20260505163603 27 162 4.8 11.3 0.00 0.00 0.00 47 1006.1
20260505163106 27 139 4.8 11.3 0.00 0.00 0.00 47 1006.3
20260505162703 28 180 4.8 9.7 0.00 0.00 0.00 45 1006.3
20260505161803 27 179 3.2 9.7 0.00 0.00 0.00 46 1006.4
20260505161506 27 234 1.6 9.7 0.00 0.00 0.00 48 1006.5
20260505160903 27 174 4.8 9.7 0.00 0.00 0.00 46 1006.4
20260505160218 27 194 3.2 8.0 0.00 0.00 0.00 47 1006.6
20260505153012 26 232 6.4 11.3 0.00 0.00 0.00 45 1007.0
20260505152703 26 206 3.2 9.7 0.00 0.00 0.00 49 1006.9
20260505151803 26 185 3.2 9.7 0.00 0.00 0.00 49 1007.0
20260505151606 26 179 3.2 11.3 0.00 0.00 0.00 47 1007.1
20260505150903 26 213 3.2 11.3 0.00 0.00 0.00 50 1006.9
20260505150217 26 217 1.6 11.3 0.00 0.00 0.00 48 1006.8
20260505150104 25 233 1.6 8.0 0.00 0.00 0.00 48 1007.0
20260505124717 20 209 1.6 9.7 0.00 0.00 0.00 67 1007.6
20260505124505 19 172 1.6 8.0 0.00 0.00 0.00 68 1007.7
20260505123603 18 213 3.2 9.7 0.00 0.00 0.00 67 1007.5
20260505123005 18 212 1.6 9.7 0.00 0.00 0.00 70 1007.6
20260505122918 18 210 3.2 11.3 0.00 0.00 0.00 69 1007.4
20260505122018 18 211 1.6 6.4 0.00 0.00 0.00 71 1007.5
20260505121509 17 223 0.0 6.4 0.00 0.00 0.00 73 1007.7
20260505120903 17 221 1.6 6.4 0.00 0.00 0.00 72 1007.6
20260505120008 17 154 0.0 3.2 0.00 0.00 0.00 75 1007.7
20260505120004 17 202 0.0 3.2 0.00 0.00 0.00 75 1007.6
20260505115403 17 205 0.0 1.6 0.00 0.00 0.00 74 1007.7
20260505114515 16 154 0.0 1.6 0.00 0.00 0.00 78 1007.7
20260505114503 16 241 0.0 1.6 0.00 0.00 0.00 78 1007.6
20260505113603 16 0 0.0 0.0 0.00 0.00 0.00 78 1007.6
20260505113012 15 151 0.0 0.0 0.00 0.00 0.00 80 1007.6
20260505112703 15 0 0.0 0.0 0.00 0.00 0.00 81 1007.4
20260505111803 15 0 0.0 0.0 0.00 0.00 0.00 84 1007.6
20260505111510 14 152 0.0 0.0 0.00 0.00 0.00 84 1007.6
20260505110903 13 0 0.0 0.0 0.00 0.00 0.00 85 1007.5
20260505101803 13 0 0.0 0.0 0.00 0.00 0.00 83 1007.5
20260505101508 13 151 0.0 0.0 0.00 0.00 0.00 83 1007.7
20260505100903 13 171 0.0 1.6 0.00 0.00 0.00 83 1007.5
20260505100010 12 31 0.0 1.6 0.00 0.00 0.00 83 1007.6
20260505100003 13 303 0.0 1.6 0.00 0.00 0.00 83 1007.5
20260505095403 13 223 0.0 1.6 0.00 0.00 0.00 83 1007.4
20260505094510 12 223 0.0 1.6 0.00 0.00 0.00 83 1007.3
20260505094503 13 213 0.0 1.6 0.00 0.00 0.00 83 1007.2
20260505093603 13 217 0.0 6.4 0.00 0.00 0.00 83 1006.9
20260505093010 12 232 0.0 3.2 0.00 0.00 0.00 83 1007.0
20260505092917 12 225 0.0 3.2 0.00 0.00 0.00 83 1006.9
20260505091803 12 217 0.0 6.4 0.00 0.00 0.00 83 1006.7
20260505091506 12 202 0.0 4.8 0.00 0.00 0.00 82 1006.8
20260505091118 13 215 0.0 3.2 0.00 0.00 0.00 82 1006.7
20260505090007 13 230 0.0 1.6 0.00 0.00 0.00 81 1006.7
20260505090004 13 230 0.0 1.6 0.00 0.00 0.00 81 1006.6
20260505085403 13 207 0.0 1.6 0.00 0.00 0.00 81 1006.6
20260505084510 13 199 0.0 1.6 0.00 0.00 0.00 81 1006.7
20260505084503 13 212 0.0 1.6 0.00 0.00 0.00 81 1006.6
20260505083603 13 213 0.0 4.8 0.00 0.00 0.00 81 1006.7
20260505083010 13 257 0.0 4.8 0.00 0.00 0.00 81 1006.8
20260505082703 13 199 1.6 4.8 0.00 0.00 0.00 82 1006.7
20260505081803 13 194 1.6 4.8 0.00 0.00 0.00 82 1006.7
20260505081504 13 205 0.0 6.4 0.00 0.00 0.00 82 1006.7
20260505080903 13 194 3.2 6.4 0.00 0.00 0.00 82 1006.6
20260505080009 13 217 1.6 4.8 0.00 0.00 0.00 81 1006.6
20260505080003 13 186 1.6 6.4 0.00 0.00 0.00 81 1006.5
20260505075616 13 193 0.0 6.4 0.00 0.00 0.00 81 1006.6
20260505074511 12 208 0.0 3.2 0.00 0.00 0.00 81 1006.7
20260505074503 13 204 0.0 3.2 0.00 0.00 0.00 81 1006.6
20260505073817 13 215 0.0 4.8 0.00 0.00 0.00 81 1006.6
20260505073109 12 175 0.0 6.4 0.00 0.00 0.00 81 1006.7
20260505072703 13 213 0.0 6.4 0.00 0.00 0.00 81 1006.6
20260505071803 13 210 0.0 6.4 0.00 0.00 0.00 81 1006.5
20260505071517 12 207 0.0 6.4 0.00 0.00 0.00 82 1006.6
20260505070903 13 191 0.0 4.8 0.00 0.00 0.00 81 1006.6
20260505070011 12 158 0.0 1.6 0.00 0.00 0.00 82 1006.6
20260505070003 13 156 0.0 1.6 0.00 0.00 0.00 82 1006.5
20260505065403 13 206 0.0 3.2 0.00 0.00 0.00 82 1006.4
20260505064505 12 215 0.0 1.6 0.00 0.00 0.00 82 1006.6
20260505064503 12 219 0.0 1.6 0.00 0.00 0.00 82 1006.5
20260505063604 13 225 0.0 4.8 0.00 0.00 0.00 82 1006.5
20260505063007 12 209 0.0 3.2 0.00 0.00 0.00 81 1006.6
20260505062703 13 220 0.0 3.2 0.00 0.00 0.00 81 1006.5
20260505061803 13 228 0.0 3.2 0.00 0.00 0.00 81 1006.5
20260505061523 12 213 0.0 1.6 0.00 0.00 0.00 81 1006.6
20260505060903 13 231 0.0 6.4 0.00 0.00 0.00 81 1006.5
20260505060003 13 214 0.0 3.2 0.00 0.00 0.00 81 1006.5
20260505055403 13 210 0.0 6.4 0.00 0.00 0.00 81 1006.5
20260505054508 12 151 0.0 4.8 0.00 0.00 0.00 81 1006.7
20260505054503 13 210 0.0 4.8 0.00 0.00 0.00 81 1006.6
20260505053603 13 0 0.0 0.0 0.00 0.00 0.00 81 1006.6
20260505053006 12 185 0.0 3.2 0.00 0.00 0.00 80 1006.8
20260505052703 13 194 0.0 3.2 0.00 0.00 0.00 80 1006.7
20260505051803 13 202 0.0 3.2 0.00 0.00 0.00 81 1006.7
20260505051511 12 205 0.0 3.2 0.00 0.00 0.00 81 1006.8
20260505050903 13 211 0.0 1.6 0.00 0.00 0.00 80 1006.8
20260505041504 13 230 0.0 3.2 0.00 0.00 0.00 78 1007.0
20260505040903 13 0 0.0 0.0 0.00 0.00 0.00 79 1006.8
20260505040005 12 212 0.0 0.0 0.00 0.00 0.00 79 1006.9
20260505035403 12 0 0.0 0.0 0.00 0.00 0.00 79 1006.8
20260505034509 11 208 0.0 0.0 0.00 0.00 0.00 79 1007.0
20260505034503 11 0 0.0 0.0 0.00 0.00 0.00 79 1006.9
20260505033603 11 0 0.0 0.0 0.00 0.00 0.00 76 1006.9
20260505033026 10 337 0.0 0.0 0.00 0.00 0.00 75 1007.0
20260505032703 11 0 0.0 0.0 0.00 0.00 0.00 74 1007.0
20260505031803 11 0 0.0 0.0 0.00 0.00 0.00 74 1007.0
20260505031505 11 336 0.0 0.0 0.00 0.00 0.00 74 1007.1
20260505031118 11 0 0.0 0.0 0.00 0.00 0.00 74 1007.0
20260505030010 11 336 0.0 0.0 0.00 0.00 0.00 72 1007.1
20260505030003 11 0 0.0 0.0 0.00 0.00 0.00 72 1007.0
20260505025403 11 0 0.0 0.0 0.00 0.00 0.00 70 1007.1
20260505024508 11 337 0.0 0.0 0.00 0.00 0.00 70 1007.2
20260505024503 12 0 0.0 0.0 0.00 0.00 0.00 70 1007.1
20260505023603 12 0 0.0 0.0 0.00 0.00 0.00 68 1007.1
20260505023003 12 337 0.0 0.0 0.00 0.00 0.00 69 1007.2
20260505022703 12 0 0.0 0.0 0.00 0.00 0.00 69 1007.2
20260505021803 12 0 0.0 0.0 0.00 0.00 0.00 70 1007.2
20260505021523 12 336 0.0 0.0 0.00 0.00 0.00 69 1007.4
20260505020903 12 0 0.0 0.0 0.00 0.00 0.00 69 1007.3
20260505020011 12 299 0.0 0.0 0.00 0.00 0.00 68 1007.5
20260505020003 12 0 0.0 0.0 0.00 0.00 0.00 68 1007.3
20260505015403 12 0 0.0 0.0 0.00 0.00 0.00 68 1007.2
20260505014503 12 0 0.0 0.0 0.00 0.00 0.00 67 1007.2
20260505013603 12 0 0.0 0.0 0.00 0.00 0.00 65 1007.1
20260505013007 12 223 0.0 0.0 0.00 0.00 0.00 64 1007.1
20260505012703 13 0 0.0 0.0 0.00 0.00 0.00 64 1006.9
20260505011803 13 0 0.0 0.0 0.00 0.00 0.00 61 1006.8
20260505011508 13 223 0.0 0.0 0.00 0.00 0.00 60 1006.9
20260505010903 13 0 0.0 0.0 0.00 0.00 0.00 59 1006.8
20260505010010 14 223 0.0 0.0 0.00 0.00 0.00 58 1006.7
20260505010004 14 0 0.0 0.0 0.00 0.00 0.00 58 1006.6
20260505005403 14 0 0.0 0.0 0.00 0.00 0.00 57 1006.5
20260505004511 15 223 0.0 0.0 0.00 0.00 0.00 55 1006.6
20260505004503 15 0 0.0 0.0 0.00 0.00 0.00 55 1006.5
20260505003603 16 0 0.0 0.0 0.00 0.00 0.00 54 1006.4
20260505003008 16 223 0.0 0.0 0.00 0.00 0.00 54 1006.5
20260505002703 16 0 0.0 0.0 0.00 0.00 0.00 54 1006.3
20260505001803 17 0 0.0 0.0 0.00 0.00 0.00 50 1006.3
20260505001507 17 223 0.0 0.0 0.00 0.00 0.00 50 1006.4
20260505001116 17 0 0.0 0.0 0.00 0.00 0.00 49 1006.3
20260505000011 18 192 0.0 0.0 0.00 0.00 0.00 48 1006.2
20260505000003 18 0 0.0 0.0 0.00 0.00 0.00 48 1006.1
20260504235403 18 0 0.0 0.0 0.00 0.00 0.00 47 1006.0
20260504234505 18 165 0.0 1.6 0.00 0.00 0.00 46 1006.0
20260504234503 19 183 0.0 1.6 0.00 0.00 0.00 46 1005.9
20260504233603 20 194 1.6 6.4 0.00 0.00 0.00 44 1005.8
20260504233008 20 201 1.6 6.4 0.00 0.00 0.00 43 1005.8
20260504232703 20 217 1.6 6.4 0.00 0.00 0.00 44 1005.7
20260504231803 20 208 3.2 11.3 0.00 0.00 0.00 43 1005.7
20260504231509 20 223 3.2 11.3 0.00 0.00 0.00 42 1005.8
20260504230903 20 218 1.6 16.1 0.00 0.00 0.00 42 1005.6
20260504230111 20 230 0.0 12.9 0.00 0.00 0.00 41 1005.7
20260504230003 21 222 4.8 17.7 0.00 0.00 0.00 41 1005.6
20260504225403 21 212 3.2 17.7 0.00 0.00 0.00 40 1005.5
20260504224508 21 218 1.6 8.0 0.00 0.00 0.00 40 1005.6
20260504224503 21 220 3.2 8.0 0.00 0.00 0.00 40 1005.5
20260504223603 21 225 3.2 11.3 0.00 0.00 0.00 40 1005.6
20260504223009 21 255 1.6 9.7 0.00 0.00 0.00 39 1005.8
20260504222703 22 197 3.2 9.7 0.00 0.00 0.00 39 1005.6
20260504221803 22 209 3.2 8.0 0.00 0.00 0.00 39 1005.6
20260504221512 22 206 1.6 8.0 0.00 0.00 0.00 38 1005.7
20260504220903 22 212 3.2 11.3 0.00 0.00 0.00 37 1005.6
20260504220004 22 160 3.2 20.9 0.00 0.00 0.00 36 1005.8
20260504215403 22 229 4.8 22.5 0.00 0.00 0.00 36 1005.7
20260504214508 22 223 3.2 11.3 0.00 0.00 0.00 38 1005.9
20260504214503 23 201 3.2 11.3 0.00 0.00 0.00 38 1005.7
20260504213603 23 209 4.8 12.9 0.00 0.00 0.00 37 1005.8
20260504213013 22 201 3.2 16.1 0.00 0.00 0.00 37 1005.9
20260504212916 23 219 4.8 14.5 0.00 0.00 0.00 36 1005.8
20260504211803 23 220 4.8 12.9 0.00 0.00 0.00 37 1005.9
20260504211504 23 175 4.8 9.7 0.00 0.00 0.00 37 1006.0
20260504210903 23 229 3.2 8.0 0.00 0.00 0.00 36 1005.9
20260504210008 22 175 0.0 11.3 0.00 0.00 0.00 36 1006.2
20260504210003 23 231 3.2 12.9 0.00 0.00 0.00 36 1006.1
20260504205403 23 236 4.8 14.5 0.00 0.00 0.00 34 1006.0
20260504204517 23 255 4.8 12.9 0.00 0.00 0.00 34 1006.2
20260504204503 23 220 3.2 12.9 0.00 0.00 0.00 34 1006.0
20260504203603 23 221 3.2 14.5 0.00 0.00 0.00 35 1005.9
20260504203003 23 206 3.2 12.9 0.00 0.00 0.00 38 1006.1
20260504202703 23 253 3.2 12.9 0.00 0.00 0.00 34 1005.9
20260504201803 23 226 4.8 17.7 0.00 0.00 0.00 35 1006.0
20260504201505 23 194 3.2 16.1 0.00 0.00 0.00 37 1006.2
20260504200903 23 217 3.2 11.3 0.00 0.00 0.00 36 1006.0